Location: Wells
(51.2093°N, 2.6446°W)
Time: 00:49:18
(UTC+00:00)

ISS - Pass Details

Date: 25 January 2026
Orbit: 413 x 429 km, 51.6° (Epoch: 11 February)

Event Time Altitude Azimuth Distance (km) Brightness Sun altitude
Rises 17:41:09 0° 280° (W) 2,362 1.2 -8.3°
Reaches altitude 10° 17:43:15 10° 280° (W) 1,500 0.1 -8.6°
Maximum altitude 17:46:37 85° 191° (S) 427 -3.7 -9.1°
Enters shadow 17:50:00 10° 104° (ESE) 1,505 -1.5 -9.6°
